This demonstration page uses our WeatherBlox Daily Observations layout. Learn more.

Left ArrowRight Arrow

Hourly Observations for November 17, 2020

Temp ( °F °C ) Dew Point ( °F °C ) Humidity (%) Winds ( mph kmh ) Pressure ( in mb ) Visibility ( mi km ) Precip ( " mm )
12:51 am 00:51 Clear 60 15.6 19 -7.2 20 20 E 10 17 30.11 1020 10 16 0.00 0.00
1:51 am 01:51 Clear 60 15.6 18 -7.8 19 19 ESE 12 19 30.11 1020 10 16 0.00 0.00
2:51 am 02:51 Clear 58 14.4 20 -6.7 23 23 E 13 20 30.12 1020 10 16 0.00 0.00
3:51 am 03:51 Clear 59 15 19 -7.2 21 21 ESE 14 22 30.13 1020 10 16 0.00 0.00
4:51 am 04:51 Clear 59 15 19 -7.2 21 21 ESE 15 24 30.13 1020 10 16 0.00 0.00
5:51 am 05:51 Clear 57 13.9 19 -7.2 23 23 ESE 13 20 30.17 1022 10 16 0.00 0.00
6:51 am 06:51 Clear 57 13.9 20 -6.7 24 24 ESE 13 20 30.18 1022 10 16 0.00 0.00
7:51 am 07:51 Sunny 58 14.4 19 -7.2 22 22 ESE 12 19 30.21 1023 10 16 0.00 0.00
8:51 am 08:51 Sunny 61 16.1 20 -6.7 20 20 ESE 12 19 30.22 1023 10 16 0.00 0.00
9:51 am 09:51 Sunny 67 19.4 20 -6.7 17 17 E 9 15 30.21 1023 10 16 0.00 0.00
10:51 am 10:51 Sunny 69 20.6 19 -7.2 15 15 SE 8 13 30.19 1022 10 16 0.00 0.00
11:51 am 11:51 Sunny 77 25 20 -6.7 12 12 SE 10 17 30.14 1021 10 16 0.00 0.00
12:51 pm 12:51 Sunny 78 25.6 20 -6.7 11 11 SSE 10 17 30.10 1019 10 16 0.00 0.00
1:51 pm 13:51 Sunny 79 26.1 20 -6.7 11 11 S 9 15 30.06 1018 10 16 0.00 0.00
2:51 pm 14:51 Sunny 81 27.2 21 -6.1 11 11 SSE 6 9 30.04 1017 10 16 0.00 0.00
3:51 pm 15:51 Sunny 81 27.2 21 -6.1 11 11 S 5 7 30.02 1017 10 16 0.00 0.00
4:51 pm 16:51 Sunny 80 26.7 22 -5.6 11 11 Calm 30.01 1016 10 16 0.00 0.00
5:51 pm 17:51 Clear 68 20 20 -6.7 16 16 NE 5 7 30.04 1017 10 16 0.00 0.00
6:51 pm 18:51 Clear 68 20 20 -6.7 16 16 SSE 5 7 30.05 1018 10 16 0.00 0.00
7:51 pm 19:51 Clear 63 17.2 22 -5.6 21 21 ESE 7 11 30.06 1018 10 16 0.00 0.00
8:51 pm 20:51 Clear 62 16.7 24 -4.4 23 23 SE 6 9 30.08 1019 10 16 0.00 0.00
9:51 pm 21:51 Clear 64 17.8 25 -3.9 23 23 SE 9 15 30.07 1018 10 16 0.00 0.00
10:51 pm 22:51 Mostly Clear 61 16.1 25 -3.9 25 25 ESE 8 13 30.08 1019 10 16 0.00 0.00
11:51 pm 23:51 Mostly Cloudy 63 17.2 26 -3.3 25 25 ESE 8 13 30.06 1018 10 16 0.00 0.00

Powered by AerisWeather